sat.trackr.live / text

‹ back to catalog

STARLINK-4335

NORAD 53215 · 2022-084AC

PAYLOAD ACTIVE UNKNOWN

§ Identity

Operator
Country
US
Launch date
2022-07-22
Launch site
AFWTR
Launch vehicle
Mass (kg)
RCS (m²)

Purposes: comms

External: N2YO · Heavens-Above · Gunter

§ Orbital elements

Epoch: 2026-09-19T22:38:39.923232Z

Period
93.91 min
Inclination
97.2844°
Eccentricity
0.0001348
Mean motion
15.33435803 rev/d
Perigee alt
464.6 km
Apogee alt
466.5 km
Semi-major
6,843.7 km
B*
1.9756e-5
RAAN
318.6270°
Arg perigee
91.2730°
Mean anomaly
268.8668°
Rev number
22,918

§ Raw data

STARLINK-43351 53215U 22084AC  26262.94351763  .00000563  00000+0  19756-4 0  99932 53215  97.2844 318.6270 0001348  91.2730 268.8668 15.33435803229188

JSON: /api/v1/satellites/53215 · /tle

For live sub-satellite position, see the globe view (requires WebGL).

§ Visibility from observer

Set your observer location to see the next 7 days of passes ≥ 10°. The values pass through the URL so the page stays shareable.

No JS? Fill the form by hand. The geolocation button needs JavaScript.